Location: Poughquag
(41.6090°N, 73.6820°W)
Time: 11:29:08
(UTC-05:00)

Envisat - Pass Details

Date: 21 January 2020
Orbit: 764 x 766 km, 98.1° (Epoch: 24 February)

Event Time Altitude Azimuth Distance (km) Brightness Sun altitude
Rises 05:22:19 0° 31° (NNE) 3,240 6.5 -21.1°
Reaches altitude 10° 05:25:30 10° 52° (NE) 2,307 6.0 -20.5°
Maximum altitude 05:28:39 16° 91° (E) 1,896 6.0 -19.9°
Drops below altitude 10° 05:31:47 10° 129° (SE) 2,296 6.4 -19.3°
Sets 05:34:57 0° 150° (SSE) 3,216 6.8 -18.7°
